RH
73 74 74 71 68 66 63 63 64 65 72 76 75 75 75 72 65 58 62 64 62 62 66 66 67 54 29 29 31 20 45 36 31 33 36 36 33 36 38 33 37 40 40 37 41 40 38
72 74 75 73 70 67 64 62 63 63 64 71 76 77 77 71 62 61 69 69 61 63 67 64 58 45 26 32 23 21 24 29 29 33 36 34 34 31 36 38 43 41 39 40 42 39 39
74 72 75 75 72 69 66 62 62 62 60 60 66 72 74 75 71 70 72 66 62 66 60 56 50 15 25 30 20 21 22 30 30 36 40 37 35 38 38 45 39 40 48 45 44 45 46
75 72 75 75 73 71 68 65 63 62 58 56 57 62 69 71 71 72 69 68 66 62 53 47 49 21 31 25 26 20 20 28 26 31 37 37 35 39 40 41 42 46 50 62 50 49 52
77 75 73 76 75 73 70 67 64 61 59 56 55 59 62 68 68 65 65 65 60 52 48 41 26 25 29 30 24 22 20 26 29 34 40 28 40 46 48 53 49 49 50 44 54 41 46
78 76 76 78 77 74 70 68 66 62 59 56 57 63 62 67 64 61 61 59 53 51 30 9 11 34 21 24 26 24 18 23 34 41 48 48 47 52 48 48 66 60 43 37 44 44 42
83 82 80 80 79 76 73 70 68 64 60 57 61 61 63 61 57 58 51 41 35 37 22 22 19 20 16 19 25 22 20 24 37 41 51 49 55 61 50 51 54 51 51 46 39 30 38
86 84 83 82 83 80 76 73 70 67 61 60 62 60 58 56 56 56 44 30 37 36 28 22 18 17 17 22 27 22 18 29 38 42 39 45 41 32 39 40 43 40 55 51 41 30 28
87 86 85 84 84 82 80 79 74 68 63 62 66 58 56 55 55 52 33 34 37 33 38 24 21 18 23 24 25 25 22 27 27 27 25 30 26 22 28 33 34 32 50 46 43 26 24
90 87 87 86 85 85 84 82 80 74 70 66 67 59 54 58 52 35 34 34 39 40 50 34 24 24 20 27 28 21 21 30 29 26 24 24 21 23 30 27 29 41 23 25 27 42 61
96 94 89 87 86 85 85 84 82 78 72 66 59 55 61 61 45 38 36 34 42 49 81 34 26 20 24 27 30 27 25 26 27 24 31 39 26 27 29 31 27 43 30 31 34 35 47
97 96 94 90 88 86 86 86 84 80 73 65 60 64 61 42 45 43 37 44 54 65 83 36 29 29 30 27 25 22 25 23 24 25 23 26 25 30 31 27 27 29 28 30 36 42 87
95 96 96 94 90 88 87 87 85 82 74 69 64 62 52 33 49 47 46 57 70 75 39 38 38 30 34 31 31 30 29 29 36 49 40 32 31 28 26 32 32 32 42 84 72 89 84
95 97 96 95 93 90 88 88 86 82 73 70 74 59 56 43 48 51 61 63 83 51 41 31 34 36 39 29 35 36 37 37 28 30 50 68 61 35 25 34 45 36 47 91 90 88 79
96 96 97 96 95 92 89 88 87 82 76 77 67 54 54 51 50 64 62 85 74 56 34 34 40 45 40 40 40 38 43 36 29 31 72 70 47 34 30 28 33 48 53 48 82 74 73
96 96 98 97 96 94 92 88 87 81 79 72 53 53 55 49 57 64 68 80 62 34 30 35 53 44 49 40 44 44 44 32 38 31 35 61 72 40 37 31 37 53 46 66 87 87 89
97 97 98 98 97 96 93 90 86 80 77 70 56 61 58 52 61 59 86 82 52 28 30 41 52 50 48 42 48 47 47 41 31 29 28 41 70 55 42 45 45 44 78 75 83 87 91
97 98 98 98 98 97 95 94 90 82 74 73 84 86 71 60 64 77 89 71 45 33 31 37 42 50 48 47 54 53 53 46 29 38 47 50 83 78 51 38 33 40 70 78 90 87 90
94 96 99 98 99 98 98 96 93 84 67 91 95 97 77 80 89 95 75 49 44 36 34 38 44 44 41 53 74 54 54 48 37 47 60 63 74 84 72 77 46 48 61 85 84 86 87
94 94 95 98 98 99 98 97 94 88 68 95 99 99 96 91 95 88 80 65 57 50 38 35 38 37 50 58 73 76 61 55 47 57 49 70 93 87 86 83 78 70 56 63 74 91 86
88 92 92 94 96 98 98 97 94 87 77 97 100 98 84 98 98 94 79 77 66 61 47 38 50 56 71 79 71 75 65 58 51 64 48 76 86 88 87 85 79 84 81 60 68 68 75
90 89 92 93 94 96 98 97 94 88 81 98 99 99 95 93 82 91 92 96 77 65 64 57 75 53 81 78 79 77 79 78 76 72 76 85 94 89 90 83 90 94 86 84 76 68 74
91 91 93 95 96 96 98 98 94 91 91 99 100 98 92 93 96 95 98 94 85 78 82 70 78 73 82 80 82 86 88 92 86 81 90 81 93 98 94 86 92 89 79 72 81 86 79
86 91 91 92 94 95 96 98 94 92 85 96 97 96 100 99 96 92 96 89 89 86 95 81 79 84 75 64 72 78 84 86 88 94 91 91 92 96 98 93 97 66 81 81 78 82 77
83 90 93 95 94 96 98 96 92 88 84 98 99 99 100 100 97 98 96 98 96 97 97 88 85 70 62 89 94 95 93 90 96 92 94 96 93 98 99 98 76 72 80 72 67 67 90
87 91 93 95 96 95 98 97 92 88 91 97 99 99 99 100 99 95 97 92 98 98 97 93 85 84 90 98 96 94 95 86 94 89 86 96 97 97 97 100 95 76 79 81 79 79 82
90 91 97 96 94 95 98 98 94 92 91 95 99 99 98 100 98 99 100 98 97 99 97 94 95 96 97 98 97 94 92 90 90 90 98 97 98 94 94 95 85 82 79 84 73 70 81
88 92 96 97 96 98 97 96 92 91 91 93 100 97 96 99 97 97 96 99 99 96 96 97 96 96 98 99 96 93 95 92 94 88 90 91 95 96 94 97 94 76 71 68 85 85 85
85 93 96 97 95 97 95 92 89 91 89 88 99 91 92 97 98 94 97 97 98 98 95 94 97 94 90 96 98 96 97 98 90 95 86 87 84 90 82 82 91 78 93 90 87 88 86
Wind_Speed
9 8 7 6 4 2 1 1 1 1 1 2 2 3 3 3 3 4 6 9 9 8 9 8 8 7 4 4 5 9 14 14 8 7 5 5 4 2 1 5 1 5 5 5 3 4 5
10 9 8 7 6 4 2 1 0 0 1 1 1 1 1 1 1 3 6 9 10 9 9 8 7 4 4 1 5 9 9 8 9 9 6 5 6 5 7 5 5 4 7 6 2 3 2
11 11 10 9 7 6 4 3 2 1 1 1 2 2 3 3 3 5 8 9 10 9 8 8 8 4 7 4 5 7 9 3 5 6 6 5 6 4 3 5 3 7 4 5 3 2 3
13 12 12 11 9 8 6 4 3 3 2 2 2 3 4 4 5 6 7 9 9 9 7 7 7 5 4 0 5 10 10 4 6 4 4 6 6 5 5 5 4 4 2 3 2 3 2
14 14 13 12 12 10 8 7 5 4 3 2 3 4 4 5 5 6 8 9 9 5 7 8 4 4 4 2 2 7 5 5 7 2 1 1 2 4 2 3 3 4 1 3 3 3 4
16 16 14 14 13 12 10 9 7 5 4 3 4 4 4 4 4 6 9 6 8 7 7 3 1 1 3 4 4 5 5 5 3 3 2 3 2 4 2 3 1 4 2 3 1 3 3
16 16 15 14 14 13 12 11 9 7 5 4 4 4 4 3 5 6 7 3 2 2 8 5 4 2 2 6 3 5 4 8 3 5 1 1 1 6 7 6 2 4 4 4 5 3 3
18 17 16 15 14 15 14 12 11 8 6 5 4 4 4 3 3 5 4 3 3 2 5 3 2 5 2 3 1 10 11 2 3 2 1 1 6 6 3 4 3 2 1 2 2 1 2
19 19 17 16 16 15 15 13 12 9 7 5 5 4 3 3 5 4 2 4 2 3 1 3 2 3 2 5 4 6 9 3 4 4 5 6 3 2 3 4 5 6 4 5 3 8 6
20 19 19 17 16 16 15 14 12 11 8 6 6 5 4 3 2 2 1 4 1 3 3 3 3 2 1 2 3 2 3 2 2 5 7 6 1 2 2 5 5 1 5 4 6 7 3
22 19 19 19 18 17 16 15 13 12 9 7 6 4 5 6 2 1 4 2 1 1 4 1 3 1 1 2 0 2 1 3 5 4 1 1 4 5 5 3 4 2 3 2 2 3 5
22 22 21 20 19 18 16 16 15 13 11 9 7 4 5 3 2 3 3 2 1 0 6 3 3 3 3 1 2 3 0 3 3 3 9 5 0 4 2 2 2 1 3 4 1 1 2
20 23 24 22 20 19 18 17 16 14 12 10 9 5 1 3 1 3 2 2 1 4 2 3 2 4 1 3 3 1 2 3 1 2 3 3 3 2 2 3 3 4 2 2 3 3 4
22 21 25 25 23 21 19 18 17 15 13 10 11 8 4 3 3 2 2 2 4 2 3 2 3 2 2 4 2 3 3 4 2 2 2 5 2 3 4 3 2 3 2 4 3 3 3
22 20 21 25 25 24 23 21 19 16 14 16 12 2 2 3 4 2 2 3 6 1 7 8 2 4 3 2 0 5 3 3 4 4 4 1 3 2 4 4 3 1 1 1 3 2 4
21 19 20 22 27 27 25 23 21 20 18 17 4 3 2 4 4 1 1 4 4 3 6 5 6 8 7 7 4 5 7 2 4 2 2 2 4 1 1 3 1 1 3 3 2 1 4
19 19 19 18 23 26 27 26 25 23 20 15 3 4 2 4 2 2 4 6 3 2 0 6 4 4 4 6 6 4 5 2 2 2 4 1 4 2 2 4 3 2 1 2 3 4 5
13 16 18 19 20 24 27 28 28 26 18 3 3 2 2 3 3 1 4 2 3 3 2 1 2 3 5 6 4 3 5 4 5 1 1 2 3 2 3 4 5 4 2 4 5 5 4
15 14 13 18 19 18 20 26 30 30 24 7 5 3 2 4 5 3 3 2 0 4 4 5 3 2 1 4 4 4 6 3 4 4 2 1 1 2 3 5 1 4 4 3 4 3 6
14 14 15 14 19 19 21 26 32 32 25 5 5 5 1 2 1 4 6 4 6 1 3 1 4 5 4 3 4 4 4 2 1 3 3 2 2 6 6 4 3 2 4 6 5 4 4
16 15 17 16 16 17 24 28 33 35 30 4 4 4 6 6 6 5 8 9 7 6 2 5 1 4 7 5 4 5 5 4 1 3 3 4 3 3 4 2 3 4 5 9 12 10 6
18 17 18 19 18 18 20 25 34 40 34 3 6 6 0 4 5 12 8 7 12 5 7 6 4 8 5 7 7 10 8 6 6 3 4 3 2 3 6 0 5 5 11 12 16 12 12
15 14 13 15 16 18 19 23 31 32 24 3 2 1 4 6 6 11 8 9 12 12 2 3 6 6 5 4 6 5 8 7 5 7 4 6 6 3 6 2 4 9 16 18 6 5 9
16 15 15 17 17 19 21 23 33 38 30 4 4 4 5 4 6 10 11 7 13 12 8 1 3 5 4 14 13 9 12 12 11 8 6 6 6 3 4 3 4 9 3 4 9 5 11
16 16 14 18 19 20 21 31 36 40 33 3 3 4 4 4 4 4 13 7 12 7 5 4 5 3 12 4 4 5 3 4 5 6 5 5 3 3 3 5 10 3 3 6 7 8 1
18 16 12 21 21 21 22 29 35 37 25 4 2 1 3 9 7 5 6 11 6 5 5 4 4 6 1 2 3 5 6 4 2 2 3 2 3 3 2 4 8 6 3 1 3 7 2
15 11 9 20 18 15 18 24 34 32 20 5 3 3 4 6 3 2 4 8 7 6 5 6 5 2 2 2 3 4 4 2 5 7 6 4 2 8 7 6 10 4 5 3 7 9 3
13 11 9 14 15 14 16 26 33 27 21 6 3 5 4 5 3 6 6 3 4 4 6 7 6 2 1 3 3 4 3 6 3 5 8 9 10 6 5 6 13 7 4 9 5 2 5
13 14 14 12 14 21 25 30 30 23 18 10 4 1 8 9 5 3 7 6 6 3 5 5 2 5 6 4 1 4 2 2 3 4 3 4 8 8 12 9 2 7 4 2 2 5 3
Wind_Direction
242 235 240 245 248 242 262 30 39 56 73 81 93 116 122 118 88 30 7 359 355 351 337 330 333 329 291 111 34 333 342 326 332 314 353 337 272 354 102 75 247 75 103 73 79 40 39
240 238 232 237 238 236 232 230 230 95 155 156 155 179 180 188 132 340 337 342 343 341 334 324 326 346 253 130 310 347 330 348 358 336 17 346 17 47 68 50 20 94 99 121 126 109 91
235 236 231 231 232 233 233 230 233 236 226 212 222 240 255 264 281 309 319 330 331 328 323 319 317 282 56 68 326 343 332 318 0 357 65 12 336 353 153 121 131 157 122 164 116 69 87
229 232 230 229 226 225 227 225 232 244 245 241 246 254 266 275 288 305 313 319 317 318 314 313 295 270 75 50 313 12 357 51 354 32 50 357 3 78 16 123 146 224 264 191 67 324 113
226 227 229 227 226 222 220 221 221 225 238 253 260 253 263 272 289 302 307 312 312 284 287 286 271 269 90 169 12 348 13 344 292 90 34 287 330 107 164 240 185 198 276 102 142 37 330
225 225 223 223 223 221 219 216 217 224 230 244 257 233 252 262 283 296 299 286 294 288 254 249 40 98 52 11 339 309 359 309 322 299 211 237 196 185 227 352 37 332 0 110 48 36 315
216 222 222 219 219 218 219 215 210 215 224 228 222 231 225 240 275 292 309 239 205 166 41 58 17 97 47 329 266 20 343 319 232 250 256 117 337 61 48 46 3 351 351 340 67 58 325
207 215 218 217 217 216 216 214 209 206 212 226 216 207 233 248 292 288 286 288 51 62 103 76 114 99 59 323 267 26 338 289 247 84 296 206 66 29 13 14 334 330 295 347 110 130 221
207 208 212 213 214 216 214 210 207 204 204 211 213 219 245 270 291 288 341 62 347 317 268 85 50 42 358 314 49 2 352 302 15 63 51 72 55 337 330 54 355 59 13 20 333 320 232
209 208 205 208 211 212 213 208 200 198 196 197 197 218 242 259 302 104 101 131 311 320 250 127 144 94 219 327 84 349 9 3 54 76 55 66 32 353 96 76 348 117 10 355 330 8 313
201 206 208 203 205 209 209 205 200 193 185 186 181 216 241 224 345 218 83 125 335 274 316 74 111 29 222 21 53 88 266 266 56 94 237 81 31 4 50 33 327 127 342 6 328 297 35
206 203 205 203 197 202 206 202 197 191 181 177 173 161 169 215 250 69 108 121 255 278 254 107 121 141 183 163 105 143 172 58 354 103 50 93 226 30 52 131 12 108 247 207 221 237 29
213 204 200 200 199 194 199 199 196 185 178 175 168 143 235 321 77 132 162 198 292 220 40 152 161 190 271 130 129 254 166 141 357 116 157 152 62 108 314 213 197 238 259 326 354 8 247
212 207 201 197 194 192 193 193 190 184 170 160 139 134 30 41 354 163 222 172 226 356 158 68 92 133 227 160 99 150 176 179 123 308 315 160 261 3 333 33 17 359 30 135 233 340 303
213 211 208 192 194 189 189 186 183 174 159 147 146 119 104 23 336 286 173 186 207 161 115 141 103 211 170 177 234 200 209 66 62 48 149 32 82 101 24 343 357 18 118 120 87 276 55
212 207 203 195 198 189 185 182 175 162 158 162 134 146 60 331 320 260 172 235 206 41 121 152 192 192 189 172 184 193 159 2 118 29 347 148 114 323 137 272 342 24 185 100 350 32 280
208 207 208 200 196 190 181 177 170 160 163 178 107 129 44 337 285 79 191 226 130 120 13 182 217 143 274 156 205 195 117 350 22 127 299 53 117 130 90 216 163 164 90 48 107 144 187
195 208 211 177 201 191 183 175 165 155 154 74 112 142 6 304 122 203 179 225 73 151 23 161 280 79 179 136 186 216 132 66 7 74 106 40 109 154 86 39 355 325 332 147 133 247 232
198 185 209 184 185 196 192 174 162 157 159 130 121 86 291 277 162 197 257 149 121 158 190 179 150 89 7 130 129 78 79 317 29 31 99 204 8 30 321 358 314 251 202 105 93 77 222
202 200 190 201 198 184 188 176 163 160 171 101 140 153 10 9 53 160 167 198 180 1 177 185 115 94 110 108 37 144 125 128 39 96 62 110 90 168 196 204 136 220 204 186 150 161 211
204 203 204 200 202 194 188 178 170 164 169 134 178 178 170 176 210 200 192 174 146 165 236 152 273 216 158 119 113 167 113 133 99 119 62 86 155 26 289 163 177 219 225 197 209 216 208
217 206 208 199 205 200 192 185 176 170 168 152 147 145 224 169 156 167 185 194 172 137 141 218 208 181 158 149 180 185 132 162 183 166 126 4 134 79 301 358 147 241 248 241 242 240 257
210 199 204 204 194 209 203 188 180 166 170 135 135 98 127 158 144 178 190 176 185 125 319 324 175 121 121 129 96 76 68 66 114 134 139 134 122 106 258 353 333 296 233 217 196 194 209
217 205 213 222 212 209 205 187 170 174 186 119 178 141 131 170 181 192 163 161 165 173 134 48 23 110 134 121 111 68 60 60 51 32 26 143 135 141 253 28 258 238 136 136 212 228 217
222 215 220 233 220 204 186 174 173 182 187 117 158 155 127 126 157 139 156 120 97 69 85 74 14 331 154 141 99 86 30 35 26 24 7 360 149 189 184 213 290 297 230 167 158 270 226
220 214 235 228 192 186 182 175 181 184 178 110 96 8 115 117 202 131 126 161 137 117 107 78 330 10 314 169 129 162 189 174 232 31 30 9 10 152 103 206 237 240 225 204 108 282 205
205 201 232 191 179 181 179 181 178 171 158 120 90 323 100 107 47 41 150 167 117 111 97 128 168 190 282 156 137 159 204 158 178 177 165 134 179 217 210 241 282 203 157 139 96 242 149
197 193 195 189 167 155 163 164 162 162 139 99 83 337 118 84 51 8 7 109 112 137 138 148 129 227 137 183 160 187 167 205 141 147 174 167 160 187 183 224 269 143 74 171 187 11 144
192 188 173 163 160 159 167 159 156 156 143 123 103 27 60 72 93 59 86 49 40 33 106 185 340 154 168 145 145 97 133 121 181 234 349 231 194 182 190 210 190 190 137 201 113 135 175